FENGYUN 1C DEB, 30003

Orbit data source: Space-Track

FENGYUN 1C DEB, 30003 is space debris in SSO originally from a launch on Mon, 10 May 1999 UTC launched from the Taiyaun Space Center, China (TSC). Fengyun 1C debris stems from the Chinese weather satellite Fengyun-1C, which was intentionally destroyed by a Chinese anti-satellite missile in 2007. This event dramatically increased the amount of space debris, with thousands of trackable fragments posing hazards to satellites and human spaceflight. The Fengyun 1C debris cloud has become a focal point in discussions about space sustainability and the need for international regulations to prevent the creation of new debris.

Loading next visibility...
Identifier
30003, 1999-025MC
Orbit
SSO
Country
Flag of CNCN / PRC
Related business
Manufacturer
Unknown
Mission
Spacecraft
Bus & Motor
Unknown
Mass
Unknown
Launch date (UTC)
1999-05-10 (27 years ago)
Launch vehicle
Unknown
Launch site
Taiyaun Space Center, China (TSC)
Object type
Payload
Rocket body
Debris
Shape & HBR
Unknown shape, 0.1 m
Radar Cross Section
Medium (>0.1 m² and <1 m²)

Expand to show TLE details & history
Last TLE update: 11 hours ago

TLE from 11 hours ago
0 FENGYUN 1C DEB
1 30003U 99025MC  26124.18575322  .00000310  00000-0  28644-3 0  9990
2 30003  99.5940 107.2435 0143872 102.6136 275.0346 13.85759483974617
Epoch: 2026-05-04T04:27Z
TLE epoch observation values (Epoch: 2026-05-04T04:27:29.078Z)
Latitude
15.75453°
Longitude
175.57483°
Altitude
937.956 km
Speed
7.388 km/s
True Right ascension
06h 58m 05s
True Declination
15° 40' 02"
Sunlit
Object was in daylight at epoch
Visualization orbit readout
Latitude
Unknown
Longitude
Unknown
Altitude
Unknown
Speed
Unknown
Apparent Right ascension
Unknown
Apparent Declination
Unknown
Sunlit
N/A
Visualization observer readout
Local Sidereal Time
23:28:02
Azimuth
Unknown
Elevation
Unknown
Doppler factor
Unknown
Orbital elements
Apogee altitude
1,046.075 km
Perigee altitude
835.478 km
Semi-major axis
7,318.914 km
Eccentricity
0.01439
Inclination
99.594°
RAAN
107.2435°
Arg. of periapsis
102.6136°
True anomaly
273.38994°
Mean anomaly
275.0346°
Eccentric anomaly
274.2125°
Mean motion
3.46636 °/min
Orbital period
103.86 mins
BSTAR
0.00028644
Loading maneuver chart data...
Computing Atmospheric mass density...

Documentation

Showing up to 5 results
|